Location: *
(33.8649°S, 62.1526°E)
Time: 11:11:56
(UTC+00:00)

Cosmos 2084 Rocket - Pass Details

Date: 17 January 2021
Orbit: 532 x 649 km, 62.8° (Epoch: 02 March)

Event Time Altitude Azimuth Distance (km) Brightness Sun altitude
Rises 17:04:09 0° 221° (SW) 2,811 8.5 -21.1°
Reaches altitude 10° 17:06:34 10° 229° (SW) 1,884 7.2 -21.4°
Maximum altitude 17:10:26 35° 295° (WNW) 906 4.5 -22.0°
Enters shadow 17:11:16 32° 322° (NW) 967 4.4 -22.1°
